When you browse on this site, cookies collect data to enhance your experience and personalize the content and advertising you see.
Visit our Privacy Policy to learn more. By continuing to use the site, you agree to this use of cookies and data.
  • In Portugal
  • List of Countries
  • For 7 days
  • Water Temperature
  • Satellite Maps
  • Weather Map
  • Weather Widgets
  • user-avatar
    Login

    Hourly Weather Djelfa

    Today, 17 November, Saturday

    Time Temperature Precipitation Wind Pressure Humidity
    00:00 +11°C° 0 mm 1 mps 662 mmHg 68%
    01:00 +10°C° 0 mm 0 mps 662 mmHg 68%
    02:00 +10°C° 0 mm 0 mps 662 mmHg 69%
    03:00 +10°C° 0 mm 0 mps 661 mmHg 69%
    04:00 +10°C° 0 mm 0 mps 661 mmHg 70%
    05:00 +10°C° 0 mm 0 mps 661 mmHg 70%
    06:00 +10°C° 0 mm 1 mps 661 mmHg 71%
    07:00 +10°C° 0.1 mm 0 mps 661 mmHg 68%
    08:00 +11°C° 0.1 mm 0 mps 661 mmHg 65%
    09:00 +11°C° 0.1 mm 0 mps 661 mmHg 61%
    10:00 +13°C° 0 mm 1 mps 661 mmHg 58%
    11:00 +14°C° 0 mm 1 mps 661 mmHg 55%
    12:00 +15°C° 0 mm 2 mps 661 mmHg 51%
    13:00 +15°C° 0.1 mm 2 mps 661 mmHg 50%
    14:00 +15°C° 0.1 mm 2 mps 661 mmHg 49%
    15:00 +15°C° 0.1 mm 2 mps 661 mmHg 49%
    16:00 +14°C° 0 mm 2 mps 660 mmHg 53%
    17:00 +14°C° 0 mm 2 mps 660 mmHg 57%
    18:00 +13°C° 0 mm 2 mps 660 mmHg 60%
    19:00 +12°C° 0 mm 1 mps 660 mmHg 63%
    20:00 +12°C° 0 mm 1 mps 660 mmHg 66%
    21:00 +11°C° 0 mm 1 mps 660 mmHg 69%
    22:00 +10°C° 0 mm 0 mps 660 mmHg 71%
    23:00 +9°C° 0 mm 0 mps 660 mmHg 73%

    Tomorrow, 18 November, Sunday

    Time Temperature Precipitation Wind Pressure Humidity
    00:00 +9°C° 0 mm 0 mps 659 mmHg 75%
    01:00 +10°C° 0 mm 1 mps 659 mmHg 75%
    02:00 +10°C° 0 mm 1 mps 659 mmHg 74%
    03:00 +10°C° 0 mm 1 mps 659 mmHg 73%
    04:00 +10°C° 0 mm 1 mps 659 mmHg 74%
    05:00 +8°C° 0 mm 2 mps 659 mmHg 74%
    06:00 +8°C° 0 mm 2 mps 659 mmHg 75%
    07:00 +9°C° 0 mm 2 mps 659 mmHg 69%
    08:00 +12°C° 0 mm 2 mps 660 mmHg 63%
    09:00 +12°C° 0 mm 3 mps 660 mmHg 57%
    10:00 +13°C° 0 mm 4 mps 660 mmHg 50%
    11:00 +15°C° 0 mm 5 mps 660 mmHg 44%
    12:00 +16°C° 0 mm 6 mps 660 mmHg 38%
    13:00 +16°C° 0 mm 6 mps 660 mmHg 36%
    14:00 +16°C° 0 mm 6 mps 659 mmHg 35%
    15:00 +16°C° 0 mm 6 mps 659 mmHg 34%
    16:00 +15°C° 0 mm 6 mps 658 mmHg 36%
    17:00 +14°C° 0 mm 6 mps 658 mmHg 38%
    18:00 +13°C° 0 mm 5 mps 658 mmHg 41%
    19:00 +13°C° 0 mm 5 mps 658 mmHg 42%
    20:00 +13°C° 0 mm 5 mps 658 mmHg 44%
    21:00 +12°C° 0 mm 5 mps 658 mmHg 46%
    22:00 +11°C° 0 mm 6 mps 658 mmHg 46%
    23:00 +11°C° 0 mm 6 mps 657 mmHg 47%

    Day after tomorrow, 19 November, Monday

    Time Temperature Precipitation Wind Pressure Humidity
    00:00 +11°C° 0 mm 6 mps 657 mmHg 47%
    01:00 +11°C° 0 mm 6 mps 657 mmHg 49%
    02:00 +10°C° 0 mm 6 mps 656 mmHg 50%
    03:00 +10°C° 0 mm 5 mps 656 mmHg 51%
    04:00 +9°C° 0 mm 5 mps 656 mmHg 53%
    05:00 +9°C° 0 mm 5 mps 655 mmHg 54%
    06:00 +9°C° 0 mm 6 mps 655 mmHg 55%
    07:00 +10°C° 0.1 mm 6 mps 655 mmHg 53%
    08:00 +10°C° 0.1 mm 7 mps 656 mmHg 52%
    09:00 +11°C° 0.1 mm 8 mps 656 mmHg 50%
    10:00 +11°C° 0.1 mm 8 mps 655 mmHg 52%
    11:00 +11°C° 0.1 mm 8 mps 655 mmHg 54%
    12:00 +10°C° 0.1 mm 7 mps 655 mmHg 55%
    13:00 +10°C° 0.1 mm 7 mps 654 mmHg 55%
    14:00 +10°C° 0.1 mm 7 mps 654 mmHg 54%
    15:00 +10°C° 0.1 mm 8 mps 654 mmHg 53%
    16:00 +9°C° 0 mm 7 mps 654 mmHg 54%
    17:00 +9°C° 0 mm 6 mps 654 mmHg 54%
    18:00 +8°C° 0 mm 5 mps 654 mmHg 55%
    19:00 +8°C° 0 mm 5 mps 655 mmHg 59%
    20:00 +7°C° 0 mm 5 mps 655 mmHg 63%
    21:00 +7°C° 0 mm 5 mps 655 mmHg 66%
    22:00 +7°C° 0 mm 5 mps 655 mmHg 68%
    23:00 +5°C° 0 mm 6 mps 655 mmHg 70%

    20 November, Tuesday

    Time Temperature Precipitation Wind Pressure Humidity
    00:00 +5°C° 0 mm 6 mps 655 mmHg 72%
    01:00 +5°C° 0 mm 7 mps 655 mmHg 73%
    02:00 +5°C° 0 mm 7 mps 655 mmHg 73%
    03:00 +5°C° 0 mm 8 mps 655 mmHg 74%
    04:00 +5°C° 0.1 mm 9 mps 655 mmHg 72%
    05:00 +5°C° 0.1 mm 10 mps 656 mmHg 71%
    06:00 +5°C° 0.1 mm 10 mps 656 mmHg 69%
    07:00 +5°C° 0 mm 10 mps 657 mmHg 70%
    08:00 +6°C° 0 mm 10 mps 657 mmHg 71%
    09:00 +7°C° 0 mm 10 mps 658 mmHg 71%
    10:00 +8°C° 0 mm 9 mps 658 mmHg 66%
    11:00 +10°C° 0 mm 9 mps 659 mmHg 60%
    12:00 +11°C° 0 mm 8 mps 659 mmHg 54%
    13:00 +11°C° 0 mm 8 mps 659 mmHg 54%
    14:00 +11°C° 0 mm 7 mps 659 mmHg 54%
    15:00 +11°C° 0 mm 7 mps 659 mmHg 53%
    16:00 +10°C° 0 mm 6 mps 660 mmHg 54%
    17:00 +10°C° 0 mm 5 mps 660 mmHg 55%
    18:00 +10°C° 0 mm 4 mps 660 mmHg 55%
    19:00 +10°C° 0 mm 4 mps 660 mmHg 53%
    20:00 +10°C° 0 mm 4 mps 661 mmHg 50%
    21:00 +8°C° 0 mm 4 mps 661 mmHg 47%
    22:00 +8°C° 0 mm 4 mps 661 mmHg 47%
    23:00 +8°C° 0 mm 4 mps 661 mmHg 47%

    21 November, Wednesday

    Time Temperature Precipitation Wind Pressure Humidity
    00:00 +7°C° 0 mm 4 mps 661 mmHg 46%
    01:00 +7°C° 0 mm 4 mps 662 mmHg 48%
    02:00 +7°C° 0 mm 4 mps 662 mmHg 50%
    03:00 +7°C° 0 mm 4 mps 662 mmHg 52%
    04:00 +6°C° 0 mm 4 mps 662 mmHg 60%
    05:00 +6°C° 0 mm 4 mps 662 mmHg 67%
    06:00 +5°C° 0 mm 4 mps 662 mmHg 75%
    07:00 +7°C° 0 mm 5 mps 663 mmHg 69%
    08:00 +8°C° 0 mm 5 mps 664 mmHg 63%
    09:00 +9°C° 0 mm 6 mps 664 mmHg 57%
    10:00 +10°C° 0 mm 6 mps 664 mmHg 52%
    11:00 +11°C° 0 mm 6 mps 665 mmHg 47%
    12:00 +14°C° 0 mm 6 mps 665 mmHg 42%
    13:00 +14°C° 0 mm 5 mps 665 mmHg 40%
    14:00 +14°C° 0 mm 5 mps 665 mmHg 38%
    15:00 +14°C° 0 mm 4 mps 665 mmHg 36%
    16:00 +13°C° 0 mm 3 mps 664 mmHg 40%
    17:00 +13°C° 0 mm 2 mps 664 mmHg 43%
    18:00 +12°C° 0 mm 1 mps 664 mmHg 47%
    19:00 +12°C° 0 mm 2 mps 665 mmHg 47%
    20:00 +10°C° 0 mm 3 mps 665 mmHg 47%
    21:00 +10°C° 0 mm 3 mps 665 mmHg 47%
    22:00 +10°C° 0 mm 3 mps 665 mmHg 47%
    23:00 +10°C° 0 mm 3 mps 665 mmHg 48%

    22 November, Thursday

    Time Temperature Precipitation Wind Pressure Humidity
    00:00 +9°C° 0 mm 3 mps 665 mmHg 48%
    01:00 +9°C° 0 mm 3 mps 664 mmHg 48%
    02:00 +9°C° 0 mm 3 mps 664 mmHg 48%
    03:00 +9°C° 0 mm 3 mps 664 mmHg 48%
    04:00 +9°C° 0 mm 3 mps 664 mmHg 48%
    05:00 +9°C° 0 mm 3 mps 664 mmHg 48%
    06:00 +8°C° 0 mm 3 mps 664 mmHg 48%
    07:00 +8°C° 0 mm 4 mps 665 mmHg 45%
    08:00 +10°C° 0 mm 4 mps 665 mmHg 42%
    09:00 +10°C° 0 mm 5 mps 666 mmHg 39%
    10:00 +11°C° 0 mm 6 mps 666 mmHg 36%
    11:00 +14°C° 0 mm 6 mps 666 mmHg 33%
    12:00 +15°C° 0 mm 7 mps 666 mmHg 30%
    13:00 +15°C° 0 mm 6 mps 666 mmHg 30%
    14:00 +15°C° 0 mm 6 mps 666 mmHg 29%
    15:00 +15°C° 0 mm 6 mps 665 mmHg 29%
    16:00 +14°C° 0 mm 5 mps 665 mmHg 32%
    17:00 +13°C° 0 mm 4 mps 665 mmHg 36%
    18:00 +12°C° 0 mm 3 mps 665 mmHg 39%
    19:00 +11°C° 0 mm 3 mps 666 mmHg 40%
    20:00 +11°C° 0 mm 3 mps 666 mmHg 41%
    21:00 +10°C° 0 mm 3 mps 666 mmHg 42%
    22:00 +10°C° 0 mm 3 mps 666 mmHg 43%
    23:00 +10°C° 0 mm 3 mps 666 mmHg 44%
    Show more